Regional Weather Roundup
Issued by NWS

Home | Current Version | Previous Version | Graphics & Text | Print | Product List | Glossary On
Versions: 1 2 3 4 5 6 7 8 9 10 11 12 13 14 15 16 17 18 19 20 21 22 23 24 25 26 27 28 29 30 31 32 33 34 35 36 37 38 39 40 41 42 43 44 45 46 47 48 49 50
000
ASUS43 KLSX 280259
RWRMO

WEATHER SUMMARY FOR MISSOURI
NATIONAL WEATHER SERVICE SPRINGFIELD MO
1000 PM CDT MON JUL 27 2015

NOTE: "FAIR" INDICATES FEW OR NO CLOUDS BELOW 12,000 FEET WITH NO
       SIGNIFICANT WEATHER AND/OR OBSTRUCTIONS TO VISIBILITY.
       CURRENT SKY AND/OR WEATHER CONDITIONS ARE NOT AVAILABLE FOR
       CHILLICOTHE AND FARMINGTON.

MOZ001>031-035>038-043-044-053-054-280400-
...NORTHERN AND WESTERN MISSOURI...

CITY           SKY/WX    TMP DP  RH WIND       PRES   REMARKS
KANSAS CTY INT PTCLDY    82  73  74 SE8       29.89R
KANSAS C DTWN  CLEAR     89  73  59 SE9       29.88R HX  97
LEE`S SUMMIT   CLEAR     85  74  69 SE5       29.91R HX  92
ST JOSEPH      CLEAR     79  72  79 E14       29.88R
KIRKSVILLE     PTCLDY    74  71  91 SE10      29.96S

$$
MOZ066>068-077>081-088>096-101>105-280400-
...SOUTHWEST MISSOURI...

CITY           SKY/WX    TMP DP  RH WIND       PRES   REMARKS
SPRINGFIELD    CLEAR     84  75  74 S7        29.96R HX  92
JOPLIN         CLEAR     83  76  79 S7        29.93R HX  91

$$
MOZ032>034-039>042-045>050-055>058-069>072-280400-
...CENTRAL MISSOURI...

CITY           SKY/WX    TMP DP  RH WIND       PRES   REMARKS
COLUMBIA       LGT RAIN  75  72  90 E12       29.96S
JEFFERSON CITY MOCLDY    80  71  74 E10       29.94R
ROLLA          MOCLDY    82  78  88 E3        29.95S HX  91
SEDALIA        CLEAR     84  77  79 SE5       29.94R HX  94
OSAGE BEACH    PTCLDY    82  75  78 CALM      29.95R

$$
MOZ051-052-059>065-280400-
...EAST CENTRAL MISSOURI...

CITY           SKY/WX    TMP DP  RH WIND       PRES   REMARKS
ST LOUIS INTL  CLOUDY    78  69  73 W3        29.99R
SPIRIT OF STL  CLOUDY    77  70  79 E7        29.96S
ST CHARLES     CLOUDY    75  72  90 NW7       29.96R

$$
MOZ072>076-082>087-097>100-106>115-280400-
...SOUTH CENTRAL AND SOUTHEAST MISSOURI...

CITY           SKY/WX    TMP DP  RH WIND       PRES   REMARKS
CAPE GIRARDEAU CLOUDY    78  75  90 CALM      29.96R
FARMINGTON     CLOUDY    79  73  83 S3        30.02R
POPLAR BLUFF   MOCLDY    82  79  90 CALM      29.94R HX  92
WEST PLAINS    MOCLDY    77  72  84 CALM      30.00R

$$



USA.gov is the U.S. government's official web portal to all federal, state and local government web resources and services.